Latest Weather Observations for Geelong Racecourse

IDV60901

Issued at 10:55 pm EST Thursday 24 July 2014 (issued every 10 minutes, with the page automatically refreshed every 10 minutes)

About weather observations | Map of Melbourne area stations | Latest observations for Melbourne area | Other Formats
Station Details ID: 087184 Name: GEELONG RACECOURSE Lat: -38.17 Lon: 144.38 Height: 12.9 m
Data from the previous 72 hours. | See also: Recent months at Geelong Racecourse
Date/Time
EST
Tmp

°C
App
Tmp
°C
Dew
Point
°C
Rel
Hum
%
Delta-T

°C
Wind Press
QNH
hPa
Press
MSL
hPa
Rain
since
9 am
mm
Dir
 
Spd
km/h
Gust
km/h
Spd
kts
Gust
kts
24/10:30pm 11.9 8.6 8.2 78 1.8 NE 15 20 8 11 1012.9 - 0.8
24/10:00pm 11.8 8.9 8.3 79 1.7 ENE 13 17 7 9 1013.0 1013.0 0.8
24/09:30pm 11.3 8.8 9.6 89 0.9 ENE 13 20 7 11 1013.0 - 0.8
24/09:00pm 10.9 8.4 9.7 92 0.6 NE 13 20 7 11 1013.0 1013.0 0.8
24/08:30pm 11.1 8.7 9.9 92 0.6 ENE 13 24 7 13 1013.1 - 0.8
24/08:00pm 11.1 9.4 9.9 92 0.6 NE 9 17 5 9 1013.1 1013.1 0.8
24/07:30pm 11.1 9.0 9.9 92 0.6 NE 11 19 6 10 1013.0 - 0.8
24/07:00pm 11.2 9.5 10.0 92 0.6 NE 9 15 5 8 1013.0 1013.0 0.8
24/06:30pm 11.4 9.4 10.1 92 0.7 ENE 11 19 6 10 1012.9 - 0.8
24/06:00pm 11.2 10.1 9.8 91 0.7 ENE 6 15 3 8 1012.8 1012.8 0.8
24/05:30pm 11.4 10.0 9.7 89 0.9 E 7 11 4 6 1012.6 - 0.8
24/05:00pm 11.9 10.6 10.0 88 1.0 E 7 11 4 6 1012.6 1012.6 0.8
24/04:30pm 11.8 10.1 9.9 88 1.0 E 9 19 5 10 1012.7 - 0.8
24/04:00pm 12.1 9.6 9.7 85 1.2 ENE 13 19 7 10 1012.7 1012.7 0.8
24/03:30pm 12.3 9.6 9.1 81 1.6 ENE 13 22 7 12 1012.5 - 0.8
24/03:00pm 12.7 9.5 8.6 76 2.0 ENE 15 26 8 14 1012.5 1012.5 0.8
24/02:30pm 12.7 9.6 8.8 77 2.0 ENE 15 22 8 12 1012.6 - 0.8
24/02:00pm 12.4 9.4 7.9 74 2.2 ENE 13 24 7 13 1012.9 1012.9 0.8
24/01:30pm 11.5 8.4 8.9 84 1.3 ENE 15 22 8 12 1013.4 - 0.8
24/01:00pm 11.4 8.7 9.1 86 1.1 ENE 13 20 7 11 1013.7 1013.7 0.8
24/12:30pm 11.0 8.5 9.8 92 0.6 ENE 13 19 7 10 1014.4 - 0.8
24/12:00pm 10.3 8.1 9.2 93 0.5 ENE 11 17 6 9 1015.0 1015.0 0.8
24/11:30am 10.0 8.4 8.9 93 0.5 ENE 7 13 4 7 1015.7 - 0.8
24/11:00am 9.8 8.2 8.7 93 0.5 NE 7 11 4 6 1016.2 1016.2 0.6
24/10:30am 9.6 7.2 8.5 93 0.5 ENE 11 17 6 9 1016.2 - 0.4
24/10:00am 9.4 7.3 8.3 93 0.5 NE 9 13 5 7 1016.4 1016.4 0.4
24/09:30am 9.3 6.8 8.2 93 0.5 NE 11 15 6 8 1016.4 - 0.2
24/09:00am 9.1 7.0 8.2 94 0.4 NE 9 13 5 7 1016.3 1016.3 0.2
24/08:30am 9.1 7.5 8.0 93 0.5 NNE 6 7 3 4 1016.1 - 0.0
24/08:00am 9.2 7.4 8.1 93 0.5 NE 7 13 4 7 1016.2 1016.2 0.0
24/07:30am 8.9 6.7 7.8 93 0.5 NE 9 13 5 7 1016.1 - 0.0
24/07:00am 9.1 6.9 8.0 93 0.5 NE 9 13 5 7 1016.1 1016.1 0.0
24/06:30am 8.6 6.9 7.7 94 0.4 NE 6 9 3 5 1016.2 - 0.0
24/06:00am 8.1 5.7 7.2 94 0.4 NE 9 13 5 7 1016.1 1016.1 0.0
24/05:30am 7.5 5.0 6.6 94 0.4 NE 9 13 5 7 1016.1 - 0.0
24/05:00am 4.0 1.8 3.1 94 0.4 NNE 4 7 2 4 1016.3 1016.3 0.0
24/04:30am 4.1 1.9 3.1 93 0.4 NNE 4 4 2 2 1016.4 - 0.0
24/04:00am 6.8 4.5 5.9 94 0.4 NNE 7 13 4 7 1016.4 1016.4 0.0
24/03:30am 6.7 4.0 5.8 94 0.4 NE 9 13 5 7 1016.4 - 0.0
24/03:00am 4.6 2.4 3.6 93 0.4 N 4 7 2 4 1016.6 1016.6 0.0
24/02:30am 6.9 4.7 6.0 94 0.4 NNE 7 13 4 7 1016.8 - 0.0
24/02:00am 7.0 4.8 6.1 94 0.4 NNE 7 15 4 8 1017.1 1017.1 0.0
24/01:30am 6.7 4.0 5.8 94 0.4 NNE 9 13 5 7 1017.0 - 0.0
24/01:00am 3.4 1.1 2.5 94 0.4 NNW 4 6 2 3 1017.3 1017.3 0.0
24/12:30am 5.7 3.4 4.8 94 0.4 NE 6 9 3 5 1017.6 - 0.0
24/12:00am 4.7 2.2 3.8 94 0.4 NNE 6 7 3 4 1017.8 1017.8 0.0
 
Date/Time
EST
Tmp

°C
App
Tmp
°C
Dew
Point
°C
Rel
Hum
%
Delta-T

°C
Wind Press
QNH
hPa
Press
MSL
hPa
Rain
since
9 am
mm
Dir
 
Spd
km/h
Gust
km/h
Spd
kts
Gust
kts
23/11:30pm 4.9 2.4 4.0 94 0.4 NNE 6 9 3 5 1018.2 - 0.0
23/11:00pm 4.5 2.0 3.6 94 0.4 NE 6 7 3 4 1018.6 1018.6 0.0
23/10:30pm 4.7 2.6 3.8 94 0.4 NNE 4 4 2 2 1019.0 - 0.0
23/10:00pm 5.0 3.3 4.1 94 0.4 NE 2 7 1 4 1019.3 1019.3 0.0
23/09:30pm 4.8 3.5 3.9 94 0.4 CALM 0 4 0 2 1019.5 - 0.0
23/09:00pm 5.0 3.7 4.1 94 0.4 CALM 0 4 0 2 1019.7 1019.7 0.0
23/08:30pm 5.0 3.7 4.1 94 0.4 CALM 0 0 0 0 1019.7 - 0.0
23/08:00pm 5.6 4.4 4.7 94 0.4 CALM 0 0 0 0 1019.6 1019.6 0.0
23/07:30pm 5.3 4.1 4.4 94 0.4 CALM 0 0 0 0 1019.6 - 0.0
23/07:00pm 6.0 4.9 5.0 93 0.4 CALM 0 0 0 0 1019.5 1019.5 0.0
23/06:30pm 6.3 5.2 5.3 93 0.4 CALM 0 0 0 0 1019.4 - 0.0
23/06:00pm 6.9 5.9 5.8 93 0.5 CALM 0 0 0 0 1019.4 1019.4 0.0
23/05:30pm 7.4 6.2 6.3 93 0.5 N 2 4 1 2 1019.4 - 0.0
23/05:00pm 7.9 6.4 6.8 93 0.5 NNE 4 6 2 3 1019.5 1019.5 0.0
23/04:30pm 7.8 7.0 6.7 93 0.5 CALM 0 0 0 0 1019.4 - 0.0
23/04:00pm 8.2 6.4 7.1 93 0.5 NNE 6 7 3 4 1019.4 1019.4 0.0
23/03:30pm 8.3 6.9 7.4 94 0.4 ENE 4 6 2 3 1019.4 - 0.0
23/03:00pm 7.6 6.9 6.9 95 0.3 CALM 0 2 0 1 1019.6 1019.6 0.0
23/02:30pm 6.9 5.6 6.2 95 0.3 N 2 4 1 2 1020.0 - 0.0
23/02:00pm 6.4 4.7 5.7 95 0.3 N 4 6 2 3 1020.3 1020.3 0.0
23/01:30pm 6.2 4.0 5.5 95 0.3 N 6 9 3 5 1020.8 - 0.0
23/01:00pm 5.8 3.6 5.1 95 0.3 N 6 9 3 5 1021.4 1021.4 0.0
23/12:30pm 6.1 3.9 5.4 95 0.3 N 6 9 3 5 1021.8 - 0.0
23/12:00pm 5.9 3.7 5.2 95 0.3 NNE 6 9 3 5 1022.4 1022.4 0.0
23/11:30am 6.0 3.8 5.3 95 0.3 NE 6 7 3 4 1023.2 - 0.0
23/11:00am 6.0 3.8 5.3 95 0.3 NNE 6 9 3 5 1023.7 1023.7 0.0
23/10:30am 6.2 4.0 5.5 95 0.3 NNE 6 9 3 5 1024.0 - 0.0
23/10:00am 6.3 4.0 5.6 95 0.3 NNE 7 13 4 7 1024.1 1024.1 0.0
23/09:30am 6.4 4.1 5.7 95 0.3 NNE 7 11 4 6 1024.0 - 0.0
23/09:00am 6.8 4.2 6.1 95 0.3 NE 9 13 5 7 1023.9 1023.9 0.0
23/08:30am 6.9 4.9 6.2 95 0.3 NE 6 9 3 5 1023.8 - 0.0
23/08:00am 6.6 4.9 5.9 95 0.3 ENE 4 9 2 5 1023.9 1023.9 0.0
23/07:30am 6.4 5.0 5.7 95 0.3 ENE 2 9 1 5 1024.0 - 0.0
23/07:00am 5.9 4.8 5.2 95 0.3 CALM 0 4 0 2 1023.7 1023.7 0.0
23/06:30am 5.5 4.3 4.8 95 0.3 CALM 0 0 0 0 1023.7 - 0.0
23/06:00am 5.1 3.9 4.4 95 0.3 CALM 0 0 0 0 1023.6 1023.6 0.0
23/05:30am 4.7 3.4 4.0 95 0.3 CALM 0 0 0 0 1023.6 - 0.0
23/05:00am 4.3 2.9 3.4 94 0.4 CALM 0 0 0 0 1023.4 1023.4 0.0
23/04:30am 4.0 2.1 3.1 94 0.4 W 2 4 1 2 1023.6 - 0.0
23/04:00am 4.2 1.6 3.3 94 0.4 WNW 6 7 3 4 1023.7 1023.7 0.0
23/03:30am 4.3 2.1 3.4 94 0.4 N 4 4 2 2 1023.8 - 0.0
23/03:00am 2.9 0.8 2.0 94 0.3 WNW 2 6 1 3 1024.0 1024.0 0.0
23/02:30am 3.1 1.5 2.2 94 0.4 CALM 0 0 0 0 1023.9 - 0.0
23/02:00am 3.5 1.9 2.6 94 0.4 CALM 0 0 0 0 1024.0 1024.0 0.0
23/01:30am 3.3 1.7 2.4 94 0.4 CALM 0 0 0 0 1024.0 - 0.0
23/01:00am 3.6 2.0 2.7 94 0.4 CALM 0 0 0 0 1024.3 1024.3 0.0
23/12:30am 3.9 2.4 3.0 94 0.4 CALM 0 0 0 0 1024.5 - 0.0
23/12:00am 3.9 2.0 3.0 94 0.4 WNW 2 4 1 2 1024.8 1024.9 0.0
 
Date/Time
EST
Tmp

°C
App
Tmp
°C
Dew
Point
°C
Rel
Hum
%
Delta-T

°C
Wind Press
QNH
hPa
Press
MSL
hPa
Rain
since
9 am
mm
Dir
 
Spd
km/h
Gust
km/h
Spd
kts
Gust
kts
22/11:30pm 4.1 1.9 3.2 94 0.4 WNW 4 4 2 2 1025.0 - 0.0
22/11:00pm 4.0 2.1 3.1 94 0.4 WNW 2 6 1 3 1025.1 1025.2 0.0
22/10:30pm 3.3 1.7 2.4 94 0.4 CALM 0 0 0 0 1025.1 - 0.0
22/10:00pm 3.9 2.4 3.0 94 0.4 CALM 0 0 0 0 1025.2 1025.3 0.0
22/09:30pm 4.3 2.9 3.4 94 0.4 CALM 0 0 0 0 1025.3 - 0.0
22/09:00pm 4.5 3.1 3.6 94 0.4 CALM 0 0 0 0 1025.3 1025.4 0.0
22/08:30pm 4.8 3.5 3.9 94 0.4 CALM 0 0 0 0 1025.1 - 0.0
22/08:00pm 5.1 3.8 4.2 94 0.4 CALM 0 0 0 0 1024.9 1025.0 0.0
22/07:30pm 5.0 2.9 4.0 93 0.4 S 4 4 2 2 1024.8 - 0.0
22/07:00pm 6.3 5.2 5.3 93 0.4 CALM 0 0 0 0 1024.7 1024.8 0.0
22/06:30pm 6.9 5.6 5.8 93 0.5 E 2 2 1 1 1024.6 - 0.0
22/06:00pm 7.9 6.8 6.8 93 0.5 E 2 4 1 2 1024.4 1024.4 0.0
22/05:30pm 8.7 7.4 7.5 92 0.6 NE 4 7 2 4 1024.5 - 0.0
22/05:00pm 9.3 7.4 6.9 85 1.1 NE 6 7 3 4 1024.4 1024.4 0.0
22/04:30pm 10.1 7.9 6.4 78 1.7 NE 7 11 4 6 1024.4 - 0.0
22/04:00pm 10.7 8.6 6.6 76 1.9 NE 7 11 4 6 1024.5 1024.5 0.0
22/03:30pm 11.0 8.9 6.7 75 2.0 NE 7 9 4 5 1024.6 - 0.0
22/03:00pm 11.2 9.4 7.9 80 1.6 NE 7 9 4 5 1024.6 1024.6 0.0
22/02:30pm 10.8 9.1 8.4 85 1.2 NNE 7 11 4 6 1024.7 - 0.0
22/02:00pm 10.5 8.9 8.9 90 0.8 NE 7 9 4 5 1024.9 1025.0 0.0
22/01:30pm 10.0 8.0 8.8 92 0.6 NE 9 13 5 7 1025.2 - 0.0
22/01:00pm 9.8 7.7 8.4 91 0.7 NNE 9 11 5 6 1025.4 1025.5 0.0
22/12:30pm 10.8 9.2 8.0 83 1.4 NNE 6 9 3 5 1026.1 - 0.0
22/12:00pm 9.9 8.3 7.8 87 1.0 N 6 9 3 5 1026.5 1026.6 0.0
22/11:30am 9.2 7.4 8.1 93 0.5 N 7 13 4 7 1026.8 - 0.0
22/11:00am 8.0 5.6 7.1 94 0.4 NNW 9 13 5 7 1027.1 1027.2 0.0
22/10:30am 6.5 3.8 5.8 95 0.3 NNW 9 13 5 7 1027.2 - 0.0
22/10:00am 5.1 2.2 4.4 95 0.3 NNW 9 13 5 7 1027.3 1027.4 0.0
22/09:30am 3.8 -0.2 3.1 95 0.3 NW 13 15 7 8 1027.2 - 0.0
22/09:00am 3.4 -0.2 2.7 95 0.3 NW 11 15 6 8 1026.9 1027.0 0.0
22/08:30am 2.3 -0.2 1.6 95 0.3 NNW 4 6 2 3 1026.6 - 0.0
22/08:00am 1.0 -1.3 0.1 94 0.3 NNW 2 4 1 2 1026.4 1026.5 0.0
22/07:30am 1.0 -1.3 0.1 94 0.3 NW 2 6 1 3 1026.3 - 0.0
22/07:00am 1.3 -0.6 0.4 94 0.3 CALM 0 4 0 2 1025.6 1025.7 0.0
22/06:30am 1.2 -2.1 0.3 94 0.3 WNW 7 9 4 5 1025.6 - 0.0
22/06:00am 1.5 -0.8 0.6 94 0.3 NW 2 2 1 1 1025.1 1025.2 0.0
22/05:30am 1.8 -0.8 0.9 94 0.3 NW 4 6 2 3 1025.2 - 0.0
22/05:00am 1.9 -0.3 1.0 94 0.3 NW 2 4 1 2 1024.9 1025.0 0.0
22/04:30am 2.2 -0.3 1.3 94 0.3 NW 4 6 2 3 1024.9 - 0.0
22/04:00am 2.0 0.2 1.1 94 0.3 CALM 0 2 0 1 1024.8 1024.9 0.0
22/03:30am 2.7 0.6 1.8 94 0.3 W 2 4 1 2 1024.7 - 0.0
22/03:00am 3.0 0.2 2.1 94 0.4 NW 6 7 3 4 1024.9 1025.0 0.0
22/02:30am 3.2 1.6 2.3 94 0.4 CALM 0 0 0 0 1024.9 - 0.0
22/02:00am 3.6 2.0 2.7 94 0.4 CALM 0 0 0 0 1024.8 1024.9 0.0
22/01:30am 3.9 1.6 3.0 94 0.4 WNW 4 4 2 2 1025.0 - 0.0
22/01:00am 4.0 1.4 3.1 94 0.4 NW 6 7 3 4 1025.2 1025.3 0.0
22/12:30am 3.4 1.1 2.5 94 0.4 WNW 4 6 2 3 1025.4 - 0.0
22/12:00am 4.0 2.5 3.1 94 0.4 CALM 0 4 0 2 1025.5 1025.6 0.0
 
Date/Time
EST
Tmp

°C
App
Tmp
°C
Dew
Point
°C
Rel
Hum
%
Delta-T

°C
Wind Press
QNH
hPa
Press
MSL
hPa
Rain
since
9 am
mm
Dir
 
Spd
km/h
Gust
km/h
Spd
kts
Gust
kts
21/11:30pm 4.0 2.5 3.1 94 0.4 CALM 0 0 0 0 1025.7 - 0.0
21/11:00pm 4.0 2.1 3.1 94 0.4 SW 2 2 1 1 1025.8 1025.9 0.0

Latest Capital City Observations: Canberra | Sydney | Melbourne | Brisbane | Adelaide | Perth | Hobart | Darwin

Other Formats:

Comma delimited format used in spreadsheet applications
http://www.bom.gov.au/fwo/IDV60901/IDV60901.94857.axf

JavaScript Object Notation format (JSON) in row-major order
http://www.bom.gov.au/fwo/IDV60901/IDV60901.94857.json